This is the latest recevied weather packets stored in our database for station/object KU9TRY. If no packets are shown the sender has not sent any weather packets the latest 10 day(s).
| Time | Temp. | Humidity | Pressure | Rain* | Wind** | Luminosity | Snow |
|---|---|---|---|---|---|---|---|
| 1777371250 | 17.78° C | 96% | 1015.9 hPa | 4.83 mm | - | 0 W/m² | - |
| 1777370946 | 17.78° C | 96% | 1016.1 hPa | 6.1 mm | - | 0 W/m² | - |
| 1777370642 | 17.22° C | 96% | 1016.9 hPa | 6.1 mm | - | 0 W/m² | - |
| 1777370339 | 17.78° C | 95% | 1016.8 hPa | 7.87 mm | - | 0 W/m² | - |
| 1777369128 | 17.78° C | 95% | 1018.1 hPa | 7.87 mm | - | 0 W/m² | - |
| 1777368826 | 17.78° C | 95% | 1017.9 hPa | 4.32 mm | - | 0 W/m² | - |
| 1777368520 | 17.78° C | 94% | 1017.7 hPa | 6.1 mm | - | 0 W/m² | - |
| 1777367915 | 17.78° C | 94% | 1017.5 hPa | 4.83 mm | - | 0 W/m² | - |
| 1777367307 | 17.78° C | 95% | 1017 hPa | 4.83 mm | - | 0 W/m² | - |
| 1777366701 | 17.78° C | 95% | 1016.3 hPa | 8.89 mm | - | 0 W/m² | - |
| 1777366093 | 17.78° C | 94% | 1016.7 hPa | 10.67 mm | - | 0 W/m² | - |
| 1777365485 | 17.78° C | 93% | 1014.7 hPa | 1.27 mm | - | 0 W/m² | - |
| 1777365183 | 17.78° C | 92% | 1013.9 hPa | 1.78 mm | - | 0 W/m² | - |
| 1777364883 | 17.78° C | 92% | 1014.1 hPa | 1.78 mm | - | 0 W/m² | - |
| 1777364577 | 17.78° C | 92% | 1014.3 hPa | 0 mm | - | 0 W/m² | - |
| 1777364274 | 17.78° C | 93% | 1014.2 hPa | 0 mm | - | 0 W/m² | - |
| 1777363970 | 17.78° C | 94% | 1014.2 hPa | 0 mm | - | 0 W/m² | - |
| 1777363668 | 17.78° C | 95% | 1014 hPa | 0 mm | - | 0 W/m² | - |
| 1777363364 | 17.22° C | 95% | 1014.3 hPa | 0 mm | - | 0 W/m² | - |
| 1777363062 | 17.22° C | 95% | 1014.8 hPa | 0 mm | - | 0 W/m² | - |
| 1777362758 | 17.22° C | 95% | 1015.7 hPa | 0 mm | - | 0 W/m² | - |
| 1777362456 | 17.22° C | 95% | 1015.5 hPa | 1.27 mm | - | 0 W/m² | - |
| 1777362153 | 17.22° C | 94% | 1015.4 hPa | 1.27 mm | - | 0 W/m² | - |
| 1777361851 | 17.22° C | 94% | 1014.9 hPa | 8.89 mm | - | 0 W/m² | - |
| 1777361547 | 17.22° C | 95% | 1014.6 hPa | 18.54 mm | - | 0 W/m² | - |
* Rain latest hour (hover to see other rain measurements)
** Current wind speed in m/s (hover to see current wind gust speed)